Dirección General De Aeronáutica Civil

Dirección Meteorológica de Chile - Servicios Climáticos

Informe General de Control de Calidad de la Estación

Listado de niveles de control de calidad para algunos parámetros
Estación Ad. Las Marías, Valdivia (390020)
Fecha de Revisión de los datos :

Elementos

Registros Niveles de Control Total
Nivel 0 Nivel 1 Nivel 2 Nivel 3 Errores Porcentaje
01 Temperatura del Aire Seco 14.337 1 0.01 % 30 0.21 % 0 . 0 . 31 0.22 %
02 Temperatura de Rocío 14.301 2 0.01 % 0 . 0 . 0 . 2 0.01 %
03 Humedad Relativa del Aire 14.299 0 . 0 . 0 . 0 . 0 0.00 %
04 Viento a 10 m. de Altura 14.338 2 0.01 % 51 0.36 % 0 . 0 . 53 0.37 %
05 Presión Atm. a Nivel de Estación (QFE) 0 0 . 0 . 0 . 0 . 0 .
06 Presión Atm. Estándar OACI (QNH) 14.283 1 0.01 % 0 . 0 . 0 . 1 0.01 %
07 Tiempo Presente Sinóptico 6.708 0 . 114 1.70 % 0 . 0 . 114 1.70 %

Totales

78.266 . 0.0077 % . 0.2492 % . 0.0000 % . 0.0000 % 201 0.2568 %

Detalle de Errores Encontrados

Nivel Fecha del Dato Descripción Información Error Fecha Ingreso
0 1987-08-07 18:00:00 Td (Temperatura Del Punto de Rocio) debe ser numérico, entre -50.0 y 50.0 69.0
0 1994-09-04 12:00:00 Td (Temperatura Del Punto de Rocio) debe ser numérico, entre -50.0 y 50.0 58.2
0 1988-01-30 12:00:00 ff (Intensidad del Viento) debe ser numerico, entre 0 y 70 kt. 80 2021-10-26 19:45:00
0 1994-07-01 00:00:00 ff (Intensidad del Viento) debe ser numerico, entre 0 y 70 kt. 85 2022-03-17 15:16:00
0 1990-11-01 00:00:00 qnh (Presión a nivel estandar) debe ser numérico, entre 300 y 1100 22.0 2022-01-18 14:48:00
0 1990-11-01 12:00:00 Ts (Temperatura Del Aire) debe ser numérico, entre -50.0 y 50.0 87.8 2022-01-18 14:48:00
Errores del Nivel 6
Nivel Fecha del Dato Descripción Información Error Fecha Ingreso
1 1985-07-10 13:00:00 Ts debe ser mayor o igual a Td Ts=-0.2 - Td=0.3 2022-09-12 12:59:00
1 1987-08-07 18:00:00 Ts debe ser mayor o igual a Td Ts=10.8 - Td=69.0 2021-10-19 15:47:00
1 1988-04-19 12:00:00 Ts debe ser mayor o igual a Td Ts=8.0 - Td=8.4 2021-10-28 17:57:00
1 1988-09-02 12:00:00 HR (Humedad Relativa) es igual a 100% y Ts <> Td -1.0 - -2.0 2021-11-02 18:22:00
1 1989-07-05 12:00:00 Ts debe ser mayor o igual a Td Ts=-1.9 - Td=3.8 2021-11-10 18:39:00
1 1989-07-06 12:00:00 Ts debe ser mayor o igual a Td Ts=-2.5 - Td=4.9 2021-11-10 18:41:00
1 1990-07-17 12:00:00 Ts debe ser mayor o igual a Td Ts=-0.6 - Td=0.6 2021-12-06 20:16:00
1 1990-07-18 12:00:00 Ts debe ser mayor o igual a Td Ts=-0.8 - Td=1.6 2021-12-06 20:18:00
1 1990-08-20 12:00:00 Ts debe ser mayor o igual a Td Ts=-0.6 - Td=1.2 2022-01-17 14:59:00
1 1990-08-28 12:00:00 Ts debe ser mayor o igual a Td Ts=-0.2 - Td=0.4 2022-01-17 15:11:00
1 1991-08-01 12:00:00 Ts debe ser mayor o igual a Td Ts=-1.8 - Td=3.6 2021-10-14 15:06:00
1 1992-07-31 12:00:00 HR (Humedad Relativa) es igual a 100% y Ts <> Td 1.0 - -1.0 2021-09-28 20:11:00
1 1992-08-01 12:00:00 HR (Humedad Relativa) es igual a 100% y Ts <> Td -2.0 - -4.0 2021-09-28 20:14:00
1 1992-08-08 12:00:00 HR (Humedad Relativa) es igual a 100% y Ts <> Td -1.3 - -2.3 2021-09-28 20:55:00
1 1993-06-08 12:00:00 Ts debe ser mayor o igual a Td Ts=-1.6 - Td=3.0 2021-10-25 20:41:00
1 1993-08-02 18:00:00 Ts debe ser mayor o igual a Td Ts=13.7 - Td=15.3 2021-10-28 14:59:00
1 1993-08-09 12:00:00 Ts debe ser mayor o igual a Td Ts=-1.0 - Td=1.5 2021-10-28 15:19:00
1 1993-08-16 12:00:00 Ts debe ser mayor o igual a Td Ts=-1.0 - Td=1.8 2021-10-28 15:38:00
1 1993-10-13 12:00:00 Ts debe ser mayor o igual a Td Ts=5.4 - Td=9.8 2021-11-08 20:34:00
1 1994-05-14 12:00:00 Ts debe ser mayor o igual a Td Ts=11.3 - Td=11.4 2022-03-14 18:51:00
1 1994-09-04 12:00:00 Ts debe ser mayor o igual a Td Ts=6.8 - Td=58.2 2022-03-21 14:41:00
1 1995-10-03 00:00:00 Ts debe ser mayor o igual a Td Ts=11.5 - Td=18.0 2022-05-04 13:59:00
1 1996-06-22 12:00:00 Ts debe ser mayor o igual a Td Ts=-2.3 - Td=-0.5 2022-04-20 15:58:00
1 1996-06-28 12:00:00 Ts debe ser mayor o igual a Td Ts=-4.0 - Td=1.0 2022-04-20 16:53:00
1 1996-06-29 12:00:00 Ts debe ser mayor o igual a Td Ts=-1.2 - Td=-1.1 2022-04-20 17:00:00
1 1996-07-14 12:00:00 Ts debe ser mayor o igual a Td Ts=-1.8 - Td=-1.7 2022-04-21 13:59:00
1 1997-09-30 00:00:00 Ts debe ser mayor o igual a Td Ts=10.6 - Td=10.8 2021-10-06 20:27:00
1 1998-07-15 12:00:00 Ts debe ser mayor o igual a Td Ts=0.0 - Td=0.2 2021-10-14 21:18:00
1 1999-07-15 12:00:00 Ts debe ser mayor o igual a Td Ts=-1.8 - Td=2.4 2021-11-08 20:13:00
1 1999-08-15 12:00:00 Ts debe ser mayor o igual a Td Ts=-2.9 - Td=-2.7 2021-11-10 14:34:00
1 1987-11-12 00:00:00 Viento calma fue mal ingresado. dd = 180 - ff = 0 2021-10-22 17:04:00
1 1989-01-30 00:00:00 Viento calma fue mal ingresado. dd = 270 - ff = 0 2021-11-04 19:48:00
1 1989-11-25 23:00:00 Viento calma fue mal ingresado. dd = 300 - ff = 0 2021-11-12 18:01:00
1 1992-02-19 18:00:00 No se informa intensidad del Viento (ff) , pero si una dirección 2021-09-21 15:37:00
1 1992-11-26 00:00:00 ff < 19kt y ((ww >= 31 y ww <= 35) o (ww == 37 o ww == 39 o ww >= 98))) 2021-09-30 21:32:00
1 1994-01-10 12:00:00 Viento calma fue mal ingresado. dd = 0 - ff = 2 2022-03-08 13:42:00
1 1994-01-13 18:00:00 Viento calma fue mal ingresado. dd = 0 - ff = 2 2022-03-08 14:27:00
1 1994-01-14 00:00:00 Viento calma fue mal ingresado. dd = 0 - ff = 2 2022-03-08 14:33:00
1 1994-01-15 00:00:00 Viento calma fue mal ingresado. dd = 0 - ff = 4 2022-03-08 14:54:00
1 1994-01-17 18:00:00 Viento calma fue mal ingresado. dd = 0 - ff = 2 2022-03-08 15:27:00
1 1994-01-20 12:00:00 Viento calma fue mal ingresado. dd = 0 - ff = 2 2022-03-08 21:08:00
1 1994-01-22 18:00:00 Viento calma fue mal ingresado. dd = 0 - ff = 2 2022-03-08 21:20:00
1 1994-01-23 00:00:00 Viento calma fue mal ingresado. dd = 0 - ff = 2 2022-03-08 21:26:00
1 1994-01-28 18:00:00 Viento calma fue mal ingresado. dd = 0 - ff = 2 2022-03-09 01:28:00
1 1994-01-29 00:00:00 Viento calma fue mal ingresado. dd = 0 - ff = 2 2022-03-09 11:28:00
1 1994-01-29 12:00:00 Viento calma fue mal ingresado. dd = 0 - ff = 2 2022-03-09 11:28:00
1 1994-01-30 12:00:00 Viento calma fue mal ingresado. dd = 0 - ff = 3 2022-03-09 11:34:00
1 1994-03-02 12:00:00 No se informa dirección del Viento (dd), pero si una fuerza y el viento no es variable 2022-03-10 13:38:00
1 1994-03-02 18:00:00 No se informa dirección del Viento (dd), pero si una fuerza y el viento no es variable 2022-03-10 13:38:00
1 1994-03-03 00:00:00 No se informa dirección del Viento (dd), pero si una fuerza y el viento no es variable 2022-03-10 13:54:00
1 1994-06-12 12:00:00 Viento calma fue mal ingresado. dd = 0 - ff = 2 2022-03-15 19:59:00
1 1994-09-02 00:00:00 No se informa dirección del Viento (dd), pero si una fuerza y el viento no es variable 2022-03-21 14:33:00
1 1994-09-02 18:00:00 No se informa dirección del Viento (dd), pero si una fuerza y el viento no es variable 2022-03-21 14:33:00
1 1994-09-15 18:00:00 No se informa dirección del Viento (dd), pero si una fuerza y el viento no es variable 2022-03-21 18:37:00
1 1994-10-10 12:00:00 No se informa dirección del Viento (dd), pero si una fuerza y el viento no es variable 2022-03-22 13:23:00
1 1994-10-24 12:00:00 No se informa dirección del Viento (dd), pero si una fuerza y el viento no es variable 2022-03-22 15:37:00
1 1994-12-13 00:00:00 Viento calma fue mal ingresado. dd = 300 - ff = 0 2022-03-23 20:05:00
1 1994-12-15 00:00:00 No se informa dirección del Viento (dd), pero si una fuerza y el viento no es variable 2022-03-23 20:14:00
1 1995-01-11 12:00:00 Viento calma fue mal ingresado. dd = 90 - ff = 0 2022-03-25 14:25:00
1 1995-04-03 12:00:00 No se informa dirección del Viento (dd), pero si una fuerza y el viento no es variable 2022-03-30 16:11:00
1 1995-05-09 18:00:00 No se informa dirección del Viento (dd), pero si una fuerza y el viento no es variable 2022-03-31 18:52:00
1 1995-05-26 12:00:00 No se informa dirección del Viento (dd), pero si una fuerza y el viento no es variable 2022-04-01 16:14:00
1 1995-06-05 12:00:00 No se informa dirección del Viento (dd), pero si una fuerza y el viento no es variable 2022-04-04 14:07:00
1 1995-06-30 00:00:00 No se informa dirección del Viento (dd), pero si una fuerza y el viento no es variable 2022-04-05 14:38:00
1 1995-07-02 12:00:00 No se informa dirección del Viento (dd), pero si una fuerza y el viento no es variable 2022-04-05 15:03:00
1 1995-07-02 18:00:00 No se informa dirección del Viento (dd), pero si una fuerza y el viento no es variable 2022-04-05 15:03:00
1 1995-08-07 00:00:00 Viento calma fue mal ingresado. dd = 300 - ff = 0 2022-05-02 15:52:00
1 1995-09-16 18:00:00 No se informa dirección del Viento (dd), pero si una fuerza y el viento no es variable 2022-05-03 17:20:00
1 1995-11-15 18:00:00 No se informa dirección del Viento (dd), pero si una fuerza y el viento no es variable 2022-05-05 17:07:00
1 1995-12-24 12:00:00 Viento calma fue mal ingresado. dd = 0 - ff = 3 2022-06-14 16:54:00
1 1996-05-06 00:00:00 No se informa dirección del Viento (dd), pero si una fuerza y el viento no es variable 2022-04-18 19:29:00
1 1996-06-08 12:00:00 No se informa dirección del Viento (dd), pero si una fuerza y el viento no es variable 2022-04-20 13:23:00
1 1996-06-08 18:00:00 Viento calma fue mal ingresado. dd = 0 - ff = 5 2022-04-20 13:23:00
1 1996-07-03 18:00:00 No se informa dirección del Viento (dd), pero si una fuerza y el viento no es variable 2022-04-20 18:32:00
1 1996-08-06 12:00:00 No se informa dirección del Viento (dd), pero si una fuerza y el viento no es variable 2022-04-22 15:17:00
1 1996-08-14 00:00:00 ff < 19kt y ((ww >= 31 y ww <= 35) o (ww == 37 o ww == 39 o ww >= 98))) 2022-04-22 16:44:00
1 1996-08-19 00:00:00 No se informa dirección del Viento (dd), pero si una fuerza y el viento no es variable 2022-04-22 18:34:00
1 1996-09-09 00:00:00 No se informa dirección del Viento (dd), pero si una fuerza y el viento no es variable 2022-04-25 17:25:00
1 1996-10-27 12:00:00 Viento calma fue mal ingresado. dd = 0 - ff = 30 2022-04-27 14:53:00
1 1996-12-08 00:00:00 Viento calma fue mal ingresado. dd = 270 - ff = 0 2022-04-28 19:02:00
1 1996-12-17 12:00:00 No se informa dirección del Viento (dd), pero si una fuerza y el viento no es variable 2022-04-28 19:37:00
1 1987-03-23 17:00:00 (ts - td > 5.0) y ((ww >= 40 y ww <= 49)) 43 2021-10-14 16:32:00
1 1987-04-23 12:00:00 (ts - td > 5.0) y ((ww >= 40 y ww <= 49)) 43 2021-10-15 16:35:00
1 1988-06-22 00:00:00 ts > 3.0 y ( (ww >= 48 y ww <= 49) o (ww >= 56 y ww <= 57) o (ww >=66 y ww <= 67)) 67 2021-10-29 16:47:00
1 1988-07-01 18:00:00 ts > 3.0 y ( (ww >= 48 y ww <= 49) o (ww >= 56 y ww <= 57) o (ww >=66 y ww <= 67)) 67 2021-10-29 17:28:00
1 1988-07-02 00:00:00 ts > 3.0 y ( (ww >= 48 y ww <= 49) o (ww >= 56 y ww <= 57) o (ww >=66 y ww <= 67)) 67 2021-10-29 17:29:00
1 1988-07-05 00:00:00 ts > 3.0 y ( (ww >= 48 y ww <= 49) o (ww >= 56 y ww <= 57) o (ww >=66 y ww <= 67)) 57 2021-10-29 17:35:00
1 1988-07-28 00:00:00 ts > 3.0 y ( (ww >= 48 y ww <= 49) o (ww >= 56 y ww <= 57) o (ww >=66 y ww <= 67)) 67 2021-11-02 13:17:00
1 1988-07-30 12:00:00 ts > 3.0 y ( (ww >= 48 y ww <= 49) o (ww >= 56 y ww <= 57) o (ww >=66 y ww <= 67)) 67 2021-11-02 15:20:00
1 1988-08-06 00:00:00 ts > 3.0 y ( (ww >= 48 y ww <= 49) o (ww >= 56 y ww <= 57) o (ww >=66 y ww <= 67)) 67 2021-11-02 16:15:00
1 1988-08-12 12:00:00 ts > 3.0 y ( (ww >= 48 y ww <= 49) o (ww >= 56 y ww <= 57) o (ww >=66 y ww <= 67)) 48 2021-11-02 16:36:00
1 1988-09-08 18:00:00 ts > 3.0 y ( (ww >= 48 y ww <= 49) o (ww >= 56 y ww <= 57) o (ww >=66 y ww <= 67)) 56 2021-11-02 19:07:00
1 1988-09-18 18:00:00 ts > 3.0 y ( (ww >= 48 y ww <= 49) o (ww >= 56 y ww <= 57) o (ww >=66 y ww <= 67)) 56 2021-11-02 19:38:00
1 1988-09-21 00:00:00 ts > 3.0 y ( (ww >= 48 y ww <= 49) o (ww >= 56 y ww <= 57) o (ww >=66 y ww <= 67)) 66 2021-11-02 19:43:00
1 1989-04-08 18:00:00 ts > 3.0 y ( (ww >= 48 y ww <= 49) o (ww >= 56 y ww <= 57) o (ww >=66 y ww <= 67)) 67 2021-11-09 13:23:00
1 1989-07-15 18:00:00 ts > 3.0 y ( (ww >= 48 y ww <= 49) o (ww >= 56 y ww <= 57) o (ww >=66 y ww <= 67)) 48 2021-11-10 19:01:00
1 1989-07-26 00:00:00 ts > 3.0 y ( (ww >= 48 y ww <= 49) o (ww >= 56 y ww <= 57) o (ww >=66 y ww <= 67)) 67 2021-11-10 20:45:00
1 1990-07-02 00:00:00 ts > 3.0 y ( (ww >= 48 y ww <= 49) o (ww >= 56 y ww <= 57) o (ww >=66 y ww <= 67)) 48 2021-11-18 14:11:00
1 1990-11-14 00:00:00 ts > 3.0 y ( (ww >= 48 y ww <= 49) o (ww >= 56 y ww <= 57) o (ww >=66 y ww <= 67)) 57 2022-01-18 17:45:00
1 1990-12-09 12:00:00 ts > 3.0 y ( (ww >= 48 y ww <= 49) o (ww >= 56 y ww <= 57) o (ww >=66 y ww <= 67)) 66 2022-01-18 20:14:00
1 1991-05-02 18:00:00 ts > 5.0 y ((ww >= 70 y ww <= 79) || (ww >= 85 y ww <= 88))) 87 2021-10-12 15:17:00
1 1991-07-30 12:00:00 ts > 3.0 y ( (ww >= 48 y ww <= 49) o (ww >= 56 y ww <= 57) o (ww >=66 y ww <= 67)) 57 2021-10-14 14:49:00
1 1992-03-17 12:00:00 ts > 3.0 y ( (ww >= 48 y ww <= 49) o (ww >= 56 y ww <= 57) o (ww >=66 y ww <= 67)) 56 2021-09-22 17:28:00
1 1992-03-19 00:00:00 ts > 3.0 y ( (ww >= 48 y ww <= 49) o (ww >= 56 y ww <= 57) o (ww >=66 y ww <= 67)) 56 2021-09-22 17:32:00
1 1992-03-20 12:00:00 ts > 3.0 y ( (ww >= 48 y ww <= 49) o (ww >= 56 y ww <= 57) o (ww >=66 y ww <= 67)) 57 2021-09-22 17:36:00
1 1992-03-25 12:00:00 ts > 3.0 y ( (ww >= 48 y ww <= 49) o (ww >= 56 y ww <= 57) o (ww >=66 y ww <= 67)) 57 2021-09-22 17:55:00
1 1992-03-25 18:00:00 ts > 3.0 y ( (ww >= 48 y ww <= 49) o (ww >= 56 y ww <= 57) o (ww >=66 y ww <= 67)) 57 2021-09-22 17:55:00
1 1992-05-16 00:00:00 ts > 3.0 y ( (ww >= 48 y ww <= 49) o (ww >= 56 y ww <= 57) o (ww >=66 y ww <= 67)) 67 2021-09-24 20:02:00
1 1992-05-28 18:00:00 ts > 3.0 y ( (ww >= 48 y ww <= 49) o (ww >= 56 y ww <= 57) o (ww >=66 y ww <= 67)) 57 2021-09-24 20:33:00
1 1992-05-29 00:00:00 ts > 3.0 y ( (ww >= 48 y ww <= 49) o (ww >= 56 y ww <= 57) o (ww >=66 y ww <= 67)) 57 2021-09-24 20:33:00
1 1992-06-04 00:00:00 ts > 3.0 y ( (ww >= 48 y ww <= 49) o (ww >= 56 y ww <= 57) o (ww >=66 y ww <= 67)) 66 2021-09-24 20:45:00
1 1992-06-04 12:00:00 ts > 3.0 y ( (ww >= 48 y ww <= 49) o (ww >= 56 y ww <= 57) o (ww >=66 y ww <= 67)) 67 2021-09-24 20:46:00
1 1992-06-04 18:00:00 ts > 3.0 y ( (ww >= 48 y ww <= 49) o (ww >= 56 y ww <= 57) o (ww >=66 y ww <= 67)) 67 2021-09-24 20:46:00
1 1992-06-05 00:00:00 ts > 3.0 y ( (ww >= 48 y ww <= 49) o (ww >= 56 y ww <= 57) o (ww >=66 y ww <= 67)) 67 2021-09-24 20:46:00
1 1992-06-09 00:00:00 ts > 3.0 y ( (ww >= 48 y ww <= 49) o (ww >= 56 y ww <= 57) o (ww >=66 y ww <= 67)) 66 2021-09-27 15:10:00
1 1992-06-09 12:00:00 ts > 3.0 y ( (ww >= 48 y ww <= 49) o (ww >= 56 y ww <= 57) o (ww >=66 y ww <= 67)) 66 2021-09-27 15:15:00
1 1992-06-09 18:00:00 ts > 3.0 y ( (ww >= 48 y ww <= 49) o (ww >= 56 y ww <= 57) o (ww >=66 y ww <= 67)) 66 2021-09-27 15:15:00
1 1992-06-10 00:00:00 ts > 3.0 y ( (ww >= 48 y ww <= 49) o (ww >= 56 y ww <= 57) o (ww >=66 y ww <= 67)) 66 2021-09-27 15:15:00
1 1992-06-11 12:00:00 ts > 3.0 y ( (ww >= 48 y ww <= 49) o (ww >= 56 y ww <= 57) o (ww >=66 y ww <= 67)) 56 2021-09-27 20:13:00
1 1992-06-11 18:00:00 ts > 3.0 y ( (ww >= 48 y ww <= 49) o (ww >= 56 y ww <= 57) o (ww >=66 y ww <= 67)) 66 2021-09-27 20:13:00
1 1992-06-12 00:00:00 ts > 3.0 y ( (ww >= 48 y ww <= 49) o (ww >= 56 y ww <= 57) o (ww >=66 y ww <= 67)) 66 2021-09-27 20:13:00
1 1992-06-13 12:00:00 ts > 3.0 y ( (ww >= 48 y ww <= 49) o (ww >= 56 y ww <= 57) o (ww >=66 y ww <= 67)) 56 2021-09-27 20:20:00
1 1992-06-15 18:00:00 ts > 3.0 y ( (ww >= 48 y ww <= 49) o (ww >= 56 y ww <= 57) o (ww >=66 y ww <= 67)) 66 2021-09-27 20:23:00
1 1992-06-16 00:00:00 ts > 3.0 y ( (ww >= 48 y ww <= 49) o (ww >= 56 y ww <= 57) o (ww >=66 y ww <= 67)) 66 2021-09-27 20:23:00
1 1992-06-17 18:00:00 ts > 3.0 y ( (ww >= 48 y ww <= 49) o (ww >= 56 y ww <= 57) o (ww >=66 y ww <= 67)) 66 2021-09-27 20:31:00
1 1992-06-18 00:00:00 ts > 3.0 y ( (ww >= 48 y ww <= 49) o (ww >= 56 y ww <= 57) o (ww >=66 y ww <= 67)) 67 2021-09-27 20:31:00
1 1992-06-18 12:00:00 ts > 3.0 y ( (ww >= 48 y ww <= 49) o (ww >= 56 y ww <= 57) o (ww >=66 y ww <= 67)) 67 2021-09-27 20:32:00
1 1992-06-18 18:00:00 ts > 3.0 y ( (ww >= 48 y ww <= 49) o (ww >= 56 y ww <= 57) o (ww >=66 y ww <= 67)) 67 2021-09-27 20:32:00
1 1992-06-19 00:00:00 ts > 3.0 y ( (ww >= 48 y ww <= 49) o (ww >= 56 y ww <= 57) o (ww >=66 y ww <= 67)) 67 2021-09-27 20:32:00
1 1992-06-23 12:00:00 ts > 3.0 y ( (ww >= 48 y ww <= 49) o (ww >= 56 y ww <= 57) o (ww >=66 y ww <= 67)) 67 2021-09-27 21:23:00
1 1992-06-24 18:00:00 ts > 3.0 y ( (ww >= 48 y ww <= 49) o (ww >= 56 y ww <= 57) o (ww >=66 y ww <= 67)) 67 2021-09-27 21:24:00
1 1992-07-01 00:00:00 ts > 3.0 y ( (ww >= 48 y ww <= 49) o (ww >= 56 y ww <= 57) o (ww >=66 y ww <= 67)) 67 2021-09-27 21:37:00
1 1992-08-15 00:00:00 ts > 3.0 y ( (ww >= 48 y ww <= 49) o (ww >= 56 y ww <= 57) o (ww >=66 y ww <= 67)) 66 2021-09-29 11:58:00
1 1992-08-19 00:00:00 ts > 3.0 y ( (ww >= 48 y ww <= 49) o (ww >= 56 y ww <= 57) o (ww >=66 y ww <= 67)) 66 2021-09-29 14:35:00
1 1992-08-19 12:00:00 ts > 3.0 y ( (ww >= 48 y ww <= 49) o (ww >= 56 y ww <= 57) o (ww >=66 y ww <= 67)) 66 2021-09-29 15:02:00
1 1992-08-25 12:00:00 ts > 3.0 y ( (ww >= 48 y ww <= 49) o (ww >= 56 y ww <= 57) o (ww >=66 y ww <= 67)) 66 2021-09-29 20:22:00
1 1993-01-10 00:00:00 ts > 3.0 y ( (ww >= 48 y ww <= 49) o (ww >= 56 y ww <= 57) o (ww >=66 y ww <= 67)) 56 2021-10-19 14:02:00
1 1993-01-10 12:00:00 ts > 3.0 y ( (ww >= 48 y ww <= 49) o (ww >= 56 y ww <= 57) o (ww >=66 y ww <= 67)) 56 2021-10-19 14:04:00
1 1993-01-10 18:00:00 ts > 3.0 y ( (ww >= 48 y ww <= 49) o (ww >= 56 y ww <= 57) o (ww >=66 y ww <= 67)) 56 2021-10-19 14:04:00
1 1993-01-11 00:00:00 ts > 3.0 y ( (ww >= 48 y ww <= 49) o (ww >= 56 y ww <= 57) o (ww >=66 y ww <= 67)) 56 2021-10-19 14:04:00
1 1993-04-28 12:00:00 ts > 3.0 y ( (ww >= 48 y ww <= 49) o (ww >= 56 y ww <= 57) o (ww >=66 y ww <= 67)) 57 2021-10-22 16:36:00
1 1993-05-02 12:00:00 ts > 3.0 y ( (ww >= 48 y ww <= 49) o (ww >= 56 y ww <= 57) o (ww >=66 y ww <= 67)) 56 2021-10-22 16:58:00
1 1993-06-01 18:00:00 ts > 3.0 y ( (ww >= 48 y ww <= 49) o (ww >= 56 y ww <= 57) o (ww >=66 y ww <= 67)) 57 2021-10-25 15:21:00
1 1993-06-04 12:00:00 ts > 3.0 y ( (ww >= 48 y ww <= 49) o (ww >= 56 y ww <= 57) o (ww >=66 y ww <= 67)) 56 2021-10-25 20:36:00
1 1993-06-19 12:00:00 ts > 3.0 y ( (ww >= 48 y ww <= 49) o (ww >= 56 y ww <= 57) o (ww >=66 y ww <= 67)) 56 2021-10-26 14:02:00
1 1993-06-19 18:00:00 ts > 3.0 y ( (ww >= 48 y ww <= 49) o (ww >= 56 y ww <= 57) o (ww >=66 y ww <= 67)) 56 2021-10-26 14:02:00
1 1996-03-12 12:00:00 ts > 5.0 y ((ww >= 70 y ww <= 79) || (ww >= 85 y ww <= 88))) 85 2022-04-13 16:18:00
1 1996-11-27 12:00:00 (ts - td > 5.0) y ((ww >= 40 y ww <= 49)) 40 2022-04-28 14:09:00
1 1997-03-27 00:00:00 ts > 3.0 y ( (ww >= 48 y ww <= 49) o (ww >= 56 y ww <= 57) o (ww >=66 y ww <= 67)) 57 2021-09-29 23:31:00
1 1997-04-28 18:00:00 ts > 3.0 y ( (ww >= 48 y ww <= 49) o (ww >= 56 y ww <= 57) o (ww >=66 y ww <= 67)) 57 2021-09-30 20:02:00
1 1997-04-29 00:00:00 ts > 3.0 y ( (ww >= 48 y ww <= 49) o (ww >= 56 y ww <= 57) o (ww >=66 y ww <= 67)) 57 2021-09-30 20:08:00
1 1997-06-15 00:00:00 ts > 3.0 y ( (ww >= 48 y ww <= 49) o (ww >= 56 y ww <= 57) o (ww >=66 y ww <= 67)) 57 2021-10-04 14:19:00
1 1997-06-29 12:00:00 ts > 3.0 y ( (ww >= 48 y ww <= 49) o (ww >= 56 y ww <= 57) o (ww >=66 y ww <= 67)) 57 2021-10-04 19:33:00
1 1997-06-30 00:00:00 ts > 3.0 y ( (ww >= 48 y ww <= 49) o (ww >= 56 y ww <= 57) o (ww >=66 y ww <= 67)) 57 2021-10-04 19:36:00
1 1997-07-01 00:00:00 ts > 3.0 y ( (ww >= 48 y ww <= 49) o (ww >= 56 y ww <= 57) o (ww >=66 y ww <= 67)) 57 2021-10-04 19:48:00
1 1997-07-26 12:00:00 ts > 3.0 y ( (ww >= 48 y ww <= 49) o (ww >= 56 y ww <= 57) o (ww >=66 y ww <= 67)) 57 2021-10-05 15:38:00
1 1997-08-13 12:00:00 ts > 3.0 y ( (ww >= 48 y ww <= 49) o (ww >= 56 y ww <= 57) o (ww >=66 y ww <= 67)) 57 2021-10-05 20:18:00
1 1997-10-09 18:00:00 ts > 3.0 y ( (ww >= 48 y ww <= 49) o (ww >= 56 y ww <= 57) o (ww >=66 y ww <= 67)) 57 2021-10-07 12:37:00
1 1997-10-11 12:00:00 ts > 3.0 y ( (ww >= 48 y ww <= 49) o (ww >= 56 y ww <= 57) o (ww >=66 y ww <= 67)) 57 2021-10-07 12:43:00
1 1997-10-15 12:00:00 ts > 3.0 y ( (ww >= 48 y ww <= 49) o (ww >= 56 y ww <= 57) o (ww >=66 y ww <= 67)) 57 2021-10-07 14:33:00
1 1997-10-16 00:00:00 ts > 3.0 y ( (ww >= 48 y ww <= 49) o (ww >= 56 y ww <= 57) o (ww >=66 y ww <= 67)) 57 2021-10-07 15:01:00
1 1997-10-24 00:00:00 ts > 3.0 y ( (ww >= 48 y ww <= 49) o (ww >= 56 y ww <= 57) o (ww >=66 y ww <= 67)) 57 2021-10-07 15:33:00
1 1997-10-24 12:00:00 ts > 3.0 y ( (ww >= 48 y ww <= 49) o (ww >= 56 y ww <= 57) o (ww >=66 y ww <= 67)) 57 2021-10-07 15:33:00
1 1997-10-25 00:00:00 ts > 3.0 y ( (ww >= 48 y ww <= 49) o (ww >= 56 y ww <= 57) o (ww >=66 y ww <= 67)) 57 2021-10-07 15:36:00
1 1997-10-25 12:00:00 ts > 3.0 y ( (ww >= 48 y ww <= 49) o (ww >= 56 y ww <= 57) o (ww >=66 y ww <= 67)) 57 2021-10-07 15:36:00
1 1997-10-26 18:00:00 ts > 3.0 y ( (ww >= 48 y ww <= 49) o (ww >= 56 y ww <= 57) o (ww >=66 y ww <= 67)) 57 2021-10-07 15:39:00
1 1997-11-09 00:00:00 ts > 3.0 y ( (ww >= 48 y ww <= 49) o (ww >= 56 y ww <= 57) o (ww >=66 y ww <= 67)) 57 2021-10-07 18:13:00
1 1997-12-03 18:00:00 ts > 3.0 y ( (ww >= 48 y ww <= 49) o (ww >= 56 y ww <= 57) o (ww >=66 y ww <= 67)) 57 2021-10-07 20:50:00
1 1998-03-18 12:00:00 ts > 3.0 y ( (ww >= 48 y ww <= 49) o (ww >= 56 y ww <= 57) o (ww >=66 y ww <= 67)) 57 2021-10-12 22:33:00
1 1998-04-30 12:00:00 ts > 3.0 y ( (ww >= 48 y ww <= 49) o (ww >= 56 y ww <= 57) o (ww >=66 y ww <= 67)) 57 2021-10-13 20:10:00
1 1998-05-21 18:00:00 ts > 3.0 y ( (ww >= 48 y ww <= 49) o (ww >= 56 y ww <= 57) o (ww >=66 y ww <= 67)) 57 2021-10-14 12:00:00
1 1998-05-22 12:00:00 ts > 3.0 y ( (ww >= 48 y ww <= 49) o (ww >= 56 y ww <= 57) o (ww >=66 y ww <= 67)) 57 2021-10-14 12:04:00
1 1998-06-05 12:00:00 ts > 3.0 y ( (ww >= 48 y ww <= 49) o (ww >= 56 y ww <= 57) o (ww >=66 y ww <= 67)) 57 2021-10-14 13:47:00
1 1998-06-27 18:00:00 ts > 3.0 y ( (ww >= 48 y ww <= 49) o (ww >= 56 y ww <= 57) o (ww >=66 y ww <= 67)) 57 2021-10-14 20:02:00
1 1998-06-28 18:00:00 ts > 3.0 y ( (ww >= 48 y ww <= 49) o (ww >= 56 y ww <= 57) o (ww >=66 y ww <= 67)) 57 2021-10-14 20:04:00
1 1998-08-07 00:00:00 ts > 3.0 y ( (ww >= 48 y ww <= 49) o (ww >= 56 y ww <= 57) o (ww >=66 y ww <= 67)) 57 2021-10-15 13:40:00
1 1998-10-19 12:00:00 ts > 3.0 y ( (ww >= 48 y ww <= 49) o (ww >= 56 y ww <= 57) o (ww >=66 y ww <= 67)) 57 2021-10-20 19:30:00
1 1999-02-28 18:00:00 ts > 3.0 y ( (ww >= 48 y ww <= 49) o (ww >= 56 y ww <= 57) o (ww >=66 y ww <= 67)) 57 2021-10-26 12:31:00
1 1999-04-28 12:00:00 ts > 3.0 y ( (ww >= 48 y ww <= 49) o (ww >= 56 y ww <= 57) o (ww >=66 y ww <= 67)) 57 2021-10-28 11:47:00
1 1999-04-29 12:00:00 ts > 3.0 y ( (ww >= 48 y ww <= 49) o (ww >= 56 y ww <= 57) o (ww >=66 y ww <= 67)) 57 2021-10-28 11:51:00
1 1999-05-17 00:00:00 ts > 3.0 y ( (ww >= 48 y ww <= 49) o (ww >= 56 y ww <= 57) o (ww >=66 y ww <= 67)) 57 2021-10-28 14:29:00
1 1999-05-17 12:00:00 ts > 3.0 y ( (ww >= 48 y ww <= 49) o (ww >= 56 y ww <= 57) o (ww >=66 y ww <= 67)) 57 2021-10-28 14:29:00
1 1999-05-26 00:00:00 ts > 3.0 y ( (ww >= 48 y ww <= 49) o (ww >= 56 y ww <= 57) o (ww >=66 y ww <= 67)) 57 2021-10-28 19:10:00
1 1999-05-27 18:00:00 ts > 3.0 y ( (ww >= 48 y ww <= 49) o (ww >= 56 y ww <= 57) o (ww >=66 y ww <= 67)) 57 2021-10-28 19:22:00
1 1999-07-09 18:00:00 ts > 3.0 y ( (ww >= 48 y ww <= 49) o (ww >= 56 y ww <= 57) o (ww >=66 y ww <= 67)) 57 2021-11-08 19:53:00
1 1999-07-25 12:00:00 ts > 3.0 y ( (ww >= 48 y ww <= 49) o (ww >= 56 y ww <= 57) o (ww >=66 y ww <= 67)) 57 2021-11-10 12:06:00
1 1999-07-25 18:00:00 ts > 3.0 y ( (ww >= 48 y ww <= 49) o (ww >= 56 y ww <= 57) o (ww >=66 y ww <= 67)) 57 2021-11-10 12:06:00
1 1999-07-26 00:00:00 ts > 3.0 y ( (ww >= 48 y ww <= 49) o (ww >= 56 y ww <= 57) o (ww >=66 y ww <= 67)) 57 2021-11-10 12:58:00
1 1999-08-10 00:00:00 ts > 3.0 y ( (ww >= 48 y ww <= 49) o (ww >= 56 y ww <= 57) o (ww >=66 y ww <= 67)) 57 2021-11-10 14:16:00
1 1999-08-18 18:00:00 ts > 3.0 y ( (ww >= 48 y ww <= 49) o (ww >= 56 y ww <= 57) o (ww >=66 y ww <= 67)) 57 2021-11-10 14:43:00
1 1999-09-03 12:00:00 ts > 3.0 y ( (ww >= 48 y ww <= 49) o (ww >= 56 y ww <= 57) o (ww >=66 y ww <= 67)) 57 2021-11-10 19:01:00
1 1999-11-11 12:00:00 ts > 3.0 y ( (ww >= 48 y ww <= 49) o (ww >= 56 y ww <= 57) o (ww >=66 y ww <= 67)) 57 2021-11-11 19:28:00
1 1999-11-15 12:00:00 ts > 3.0 y ( (ww >= 48 y ww <= 49) o (ww >= 56 y ww <= 57) o (ww >=66 y ww <= 67)) 57 2021-11-11 20:32:00
1 1999-11-30 12:00:00 ts > 3.0 y ( (ww >= 48 y ww <= 49) o (ww >= 56 y ww <= 57) o (ww >=66 y ww <= 67)) 57 2021-11-12 13:29:00
1 1999-12-04 00:00:00 ts > 3.0 y ( (ww >= 48 y ww <= 49) o (ww >= 56 y ww <= 57) o (ww >=66 y ww <= 67)) 57 2021-11-12 13:46:00
Errores del Nivel 195
Informe generado el 05-03-2024 11:29
Requerimiento: RE6001